Date String (YYYY-MM-DD hh:mm:ss) UTC,Instrument flags,Ambient pressure (hPa),Sample flow (lpm),Bypass flow (lpm),Sample temperature (°C),Ambient temperature (°C),ASC tube jacket temperature (°C),LED temperature (°C),Box temperature (°C),Sample RH (%),Span deviation,Mass concentration (μg/m³),Mass concentration (μg/m³),Mass concentration (μg/m³)
DateTimeUTC,F1_M11,P_M11,Q1_M11,Q2_M11,T1_M11,T2_M11,T3_M11,T4_M11,T5_M11,U1_M11,ZSPAN_M11,X0_M11,X2_M11,X1_M11
2021-09-05 19:00:00,,0831.2,5.00,0.00,29.3,27.7,00.0,38.3,31.1,10.5,0002.5,0017.72,0011.16,0010.40
2021-09-05 19:01:00,,0831.1,4.99,0.00,29.3,28.1,00.0,38.3,31.2,10.6,0002.6,0017.66,0011.16,0010.39
2021-09-05 19:02:00,,0831.2,5.00,0.00,29.4,28.3,00.0,38.3,31.2,10.5,0002.7,0017.90,0011.18,0010.39
2021-09-05 19:03:00,,0831.2,5.00,0.00,29.4,27.7,00.0,38.3,31.1,10.5,0002.8,0018.22,0011.20,0010.40
2021-09-05 19:04:00,,0831.1,5.00,0.00,29.3,26.0,00.0,38.3,30.6,10.6,0002.9,0017.82,0011.22,0010.39
2021-09-05 19:05:00,,0831.1,5.00,0.00,29.1,25.9,00.0,38.3,30.5,10.6,0003.2,0017.72,0011.17,0010.34
2021-09-05 19:06:00,,0831.0,5.00,0.00,29.1,26.3,00.0,38.3,30.6,10.7,0002.3,0017.81,0011.11,0010.29
2021-09-05 19:07:00,,0831.1,4.99,0.00,29.1,26.7,00.0,38.2,30.8,10.6,0002.2,0018.07,0011.11,0010.26
2021-09-05 19:08:00,,0831.1,5.00,0.00,29.1,27.2,00.0,38.2,30.8,10.4,0002.2,0017.65,0011.03,0010.21
2021-09-05 19:09:00,,0831.0,5.00,0.00,29.2,27.6,00.0,38.2,31.0,10.5,0001.6,0017.62,0010.93,0010.17
2021-09-05 19:10:00,,0831.1,5.00,0.00,29.2,27.9,00.0,38.2,31.1,10.3,0000.8,0017.41,0010.89,0010.13
2021-09-05 19:11:00,,0831.1,5.00,0.00,29.3,28.2,00.0,38.2,31.2,10.0,0001.4,0017.61,0010.91,0010.13
2021-09-05 19:12:00,,0831.1,5.01,0.00,29.3,28.4,00.0,38.3,31.2,10.0,0001.7,0018.63,0010.91,0010.16
2021-09-05 19:13:00,,0831.0,5.00,0.00,29.4,28.6,00.0,38.3,31.3,10.0,0001.7,0018.36,0010.89,0010.17
2021-09-05 19:14:00,,0831.0,5.00,0.00,29.5,28.2,00.0,38.3,31.2,09.8,0001.7,0018.37,0010.90,0010.19
2021-09-05 19:15:00,,0831.0,5.00,0.00,29.3,26.4,00.0,38.3,30.7,10.1,0001.5,0019.18,0010.91,0010.20
2021-09-05 19:16:00,,0831.0,5.00,0.00,29.2,25.9,00.0,38.3,30.6,10.1,0001.3,0019.26,0010.92,0010.24
2021-09-05 19:17:00,,0831.0,5.00,0.00,29.2,26.3,00.0,38.3,30.7,09.9,0001.8,0019.70,0010.94,0010.27
2021-09-05 19:18:00,,0831.0,4.99,0.00,29.1,26.7,00.0,38.2,30.8,09.9,0002.0,0020.29,0010.93,0010.30
2021-09-05 19:19:00,,0831.0,5.01,0.00,29.2,27.2,00.0,38.2,30.9,09.9,0002.5,0021.54,0010.98,0010.34
2021-09-05 19:20:00,,0831.1,4.99,0.00,29.2,27.6,00.0,38.2,31.0,10.1,0002.9,0021.11,0011.03,0010.36
2021-09-05 19:21:00,,0831.0,5.00,0.00,29.3,27.9,00.0,38.2,31.1,10.3,0003.3,0021.35,0011.04,0010.38
2021-09-05 19:22:00,,0831.0,5.00,0.00,29.3,28.2,00.0,38.3,31.2,10.1,0003.2,0021.01,0010.99,0010.39
2021-09-05 19:23:00,,0831.0,4.99,0.00,29.4,28.4,00.0,38.3,31.3,10.0,0003.1,0020.12,0011.01,0010.39
2021-09-05 19:24:00,,0830.9,5.00,0.00,29.4,27.3,00.0,38.3,31.0,09.9,0003.2,0020.13,0011.05,0010.38
2021-09-05 19:25:00,,0830.9,5.01,0.00,29.2,25.8,00.0,38.3,30.5,10.1,0003.4,0020.62,0011.03,0010.37
2021-09-05 19:26:00,,0830.9,4.99,0.00,29.1,25.9,00.0,38.2,30.5,10.0,0003.4,0020.29,0011.06,0010.39
2021-09-05 19:27:00,,0830.9,5.00,0.00,29.1,26.4,00.0,38.2,30.7,10.1,0003.4,0020.21,0011.09,0010.39
2021-09-05 19:28:00,,0830.9,5.00,0.00,29.1,26.8,00.0,38.2,30.8,10.0,0003.1,0019.69,0011.09,0010.37
2021-09-05 19:29:00,,0830.9,5.01,0.00,29.1,27.3,00.0,38.2,30.9,10.0,0003.1,0018.57,0011.08,0010.36
2021-09-05 19:30:00,,0830.9,4.98,0.00,29.2,27.7,00.0,38.2,31.0,10.1,0002.4,0017.67,0011.06,0010.34
2021-09-05 19:31:00,,0830.9,5.00,0.00,29.2,27.9,00.0,38.2,31.1,10.2,0002.1,0017.65,0011.05,0010.32
2021-09-05 19:32:00,,0830.9,5.01,0.00,29.3,28.2,00.0,38.2,31.1,10.0,0001.8,0018.44,0010.99,0010.27
2021-09-05 19:33:00,,0830.9,5.00,0.00,29.3,27.2,00.0,38.2,30.9,10.7,0001.7,0019.38,0011.04,0010.25
2021-09-05 19:34:00,,0830.9,5.01,0.00,29.1,25.7,00.0,38.2,30.4,11.0,0001.7,0020.02,0011.07,0010.26
2021-09-05 19:35:00,,0830.9,5.00,0.00,29.0,25.8,00.0,38.2,30.4,10.9,0001.6,0021.01,0011.08,0010.28
2021-09-05 19:36:00,,0830.9,4.99,0.00,29.0,26.2,00.0,38.1,30.5,11.1,0001.4,0020.44,0011.05,0010.26
2021-09-05 19:37:00,,0830.9,4.99,0.00,29.0,26.7,00.0,38.1,30.6,10.6,0001.2,0020.26,0010.96,0010.19
2021-09-05 19:38:00,,0830.9,5.00,0.00,29.0,27.2,00.0,38.1,30.8,10.1,0001.2,0020.46,0010.89,0010.14
2021-09-05 19:39:00,,0830.9,5.00,0.00,29.1,27.5,00.0,38.1,30.9,10.1,0001.5,0021.24,0010.88,0010.10
2021-09-05 19:40:00,,0830.8,4.99,0.00,29.1,27.9,00.0,38.1,31.0,10.1,0001.6,0021.30,0010.83,0010.04
2021-09-05 19:41:00,,0830.8,5.00,0.00,29.2,28.1,00.0,38.1,31.1,09.8,0001.8,0021.78,0010.76,0009.99
2021-09-05 19:42:00,,0830.9,5.00,0.00,29.3,28.4,00.0,38.2,31.2,09.8,0002.4,0021.32,0010.69,0009.93
2021-09-05 19:43:00,,0830.9,5.01,0.00,29.3,28.5,00.0,38.2,31.3,09.7,0002.6,0020.09,0010.71,0009.91
2021-09-05 19:44:00,,0830.9,5.00,0.00,29.4,28.7,00.0,38.2,31.3,09.6,0002.4,0019.38,0010.64,0009.87
2021-09-05 19:45:00,,0830.8,5.01,0.00,29.4,28.1,00.0,38.3,31.2,09.6,0002.4,0018.58,0010.58,0009.81
2021-09-05 19:46:00,,0830.7,5.01,0.00,29.3,26.3,00.0,38.2,30.7,09.9,0002.3,0017.96,0010.50,0009.75
2021-09-05 19:47:00,,0830.8,5.00,0.00,29.2,25.9,00.0,38.2,30.5,09.9,0002.2,0017.78,0010.47,0009.72
2021-09-05 19:48:00,,0830.8,5.00,0.00,29.1,26.3,00.0,38.2,30.6,09.9,0002.3,0017.39,0010.46,0009.72
2021-09-05 19:49:00,,0830.8,4.99,0.00,29.1,26.7,00.0,38.2,30.8,09.8,0002.4,0016.94,0010.47,0009.74
2021-09-05 19:50:00,,0830.8,5.00,0.00,29.1,27.2,00.0,38.2,30.9,09.9,0002.7,0016.26,0010.45,0009.77
2021-09-05 19:51:00,,0830.8,5.01,0.00,29.2,27.6,00.0,38.2,31.0,09.9,0003.0,0016.99,0010.50,0009.82
2021-09-05 19:52:00,,0830.8,5.00,0.00,29.2,27.9,00.0,38.2,31.1,09.7,0003.3,0016.52,0010.53,0009.85
2021-09-05 19:53:00,,0830.8,4.99,0.00,29.3,28.2,00.0,38.2,31.2,09.8,0003.4,0017.17,0010.59,0009.91
2021-09-05 19:54:00,,0830.8,5.00,0.00,29.3,27.8,00.0,38.2,31.1,09.8,0003.4,0017.10,0010.59,0009.95
2021-09-05 19:55:00,,0830.7,5.01,0.00,29.2,26.1,00.0,38.2,30.6,09.6,0003.3,0017.11,0010.61,0009.99
2021-09-05 19:56:00,,0830.7,5.00,0.00,29.1,25.6,00.0,38.2,30.4,10.1,0003.2,0017.18,0010.64,0010.03
2021-09-05 19:57:00,,0830.6,5.00,0.00,29.0,26.1,00.0,38.2,30.5,10.2,0003.1,0017.02,0010.71,0010.06
2021-09-05 19:58:00,,0830.6,5.01,0.00,29.0,26.5,00.0,38.1,30.6,10.0,0003.1,0016.99,0010.73,0010.08
2021-09-05 19:59:00,,0830.6,4.99,0.00,29.0,27.0,00.0,38.1,30.8,10.0,0003.1,0017.07,0010.79,0010.11
